Location: Newark
(25.4800°N, 85.7200°E)
Time: 08:43:20
(UTC+00:00)

Vanguard 1 Rocket - Pass Details

Date: 23 August 2019
Orbit: 652 x 4225 km, 34.3° (Epoch: 15 September)

Event Time Altitude Azimuth Distance (km) Brightness Sun altitude
Rises 22:20:47 0° 292° (WNW) 3,025 - -20.8°
Reaches altitude 10° 22:22:57 10° 302° (WNW) 2,225 - -20.3°
Exits shadow 22:23:50 15° 308° (NW) 1,936 8.8 -20.2°
Maximum altitude 22:27:35 38° 11° (NNE) 1,388 8.6 -19.4°
Drops below altitude 10° 22:34:47 10° 78° (ENE) 3,475 11.6 -17.9°
Sets 22:39:05 0° 85° (E) 5,021 12.6 -17.0°
